• In Uzbekistan
  • List of Countries
  • For 7 days
  • Water Temperature
  • Satellite Maps
  • Weather Map
  • Weather Widgets
  • user-avatar
    Login

    Hourly Weather Tromsø

    Today, 23 April, Tuesday

    Time Temperature Precipitation Wind Pressure Humidity
    00:00 +3°C° 2.1 mm 4 mps 746 mmHg 98%
    01:00 +4°C° 0 mm 3 mps 746 mmHg 99%
    02:00 +4°C° 1.8 mm 3 mps 746 mmHg 99%
    03:00 +4°C° 1.8 mm 3 mps 747 mmHg 99%
    04:00 +3°C° 1.8 mm 3 mps 747 mmHg 99%
    05:00 +3°C° 1.6 mm 3 mps 748 mmHg 99%
    06:00 +3°C° 1.6 mm 3 mps 748 mmHg 99%
    07:00 +5°C° 0 mm 2 mps 748 mmHg 99%
    08:00 +4°C° 0.9 mm 3 mps 749 mmHg 99%
    09:00 +3°C° 0.9 mm 3 mps 749 mmHg 99%
    10:00 +3°C° 0.9 mm 4 mps 750 mmHg 99%
    11:00 +3°C° 0.2 mm 3 mps 750 mmHg 99%
    12:00 +3°C° 0.2 mm 3 mps 751 mmHg 99%
    13:00 +3°C° 0.2 mm 3 mps 751 mmHg 99%
    14:00 +3°C° 0.1 mm 3 mps 752 mmHg 98%
    15:00 +3°C° 0.1 mm 3 mps 752 mmHg 98%
    16:00 +3°C° 0.1 mm 3 mps 752 mmHg 98%
    17:00 +3°C° 0.1 mm 3 mps 753 mmHg 97%
    18:00 +3°C° 0.1 mm 3 mps 753 mmHg 96%
    19:00 +3°C° 0.1 mm 3 mps 754 mmHg 96%
    20:00 +3°C° 0 mm 3 mps 754 mmHg 93%
    21:00 +3°C° 0 mm 3 mps 754 mmHg 91%
    22:00 +3°C° 0 mm 3 mps 755 mmHg 88%
    23:00 +4°C° 0 mm 2 mps 755 mmHg 86%

    Tomorrow, 24 April, Wednesday

    Time Temperature Precipitation Wind Pressure Humidity
    00:00 +4°C° 0 mm 2 mps 755 mmHg 83%
    01:00 +4°C° 0 mm 2 mps 756 mmHg 81%
    02:00 +3°C° 0 mm 2 mps 756 mmHg 79%
    03:00 +3°C° 0 mm 2 mps 756 mmHg 77%
    04:00 +3°C° 0 mm 2 mps 756 mmHg 76%
    05:00 +4°C° 0 mm 2 mps 757 mmHg 79%
    06:00 +4°C° 0 mm 2 mps 757 mmHg 83%
    07:00 +5°C° 0 mm 2 mps 757 mmHg 86%
    08:00 +5°C° 0 mm 2 mps 757 mmHg 88%
    09:00 +5°C° 0 mm 2 mps 758 mmHg 90%
    10:00 +6°C° 0 mm 2 mps 758 mmHg 93%
    11:00 +6°C° 0 mm 2 mps 758 mmHg 92%
    12:00 +8°C° 0 mm 1 mps 758 mmHg 92%
    13:00 +8°C° 0 mm 1 mps 758 mmHg 92%
    14:00 +8°C° 0 mm 1 mps 758 mmHg 91%
    15:00 +8°C° 0 mm 1 mps 758 mmHg 91%
    16:00 +8°C° 0 mm 1 mps 759 mmHg 91%
    17:00 +8°C° 0 mm 1 mps 759 mmHg 86%
    18:00 +7°C° 0 mm 1 mps 759 mmHg 81%
    19:00 +7°C° 0 mm 1 mps 759 mmHg 77%
    20:00 +6°C° 0 mm 1 mps 759 mmHg 75%
    21:00 +6°C° 0 mm 1 mps 759 mmHg 74%
    22:00 +6°C° 0 mm 1 mps 759 mmHg 73%
    23:00 +4°C° 0 mm 2 mps 759 mmHg 72%

    Day after tomorrow, 25 April, Thursday

    Time Temperature Precipitation Wind Pressure Humidity
    00:00 +4°C° 0 mm 2 mps 759 mmHg 72%
    01:00 +4°C° 0 mm 2 mps 759 mmHg 71%
    02:00 +4°C° 0 mm 2 mps 759 mmHg 71%
    03:00 +4°C° 0 mm 2 mps 758 mmHg 70%
    04:00 +4°C° 0 mm 2 mps 758 mmHg 70%
    05:00 +4°C° 0 mm 2 mps 758 mmHg 72%
    06:00 +5°C° 0 mm 2 mps 758 mmHg 74%
    07:00 +5°C° 0 mm 2 mps 758 mmHg 75%
    08:00 +6°C° 0 mm 2 mps 758 mmHg 77%
    09:00 +7°C° 0 mm 2 mps 758 mmHg 78%
    10:00 +7°C° 0 mm 2 mps 758 mmHg 79%
    11:00 +8°C° 0 mm 2 mps 757 mmHg 78%
    12:00 +8°C° 0 mm 2 mps 757 mmHg 77%
    13:00 +9°C° 0 mm 2 mps 757 mmHg 76%
    14:00 +9°C° 0 mm 2 mps 757 mmHg 77%
    15:00 +9°C° 0 mm 2 mps 757 mmHg 78%
    16:00 +9°C° 0 mm 2 mps 757 mmHg 79%
    17:00 +8°C° 0 mm 2 mps 756 mmHg 78%
    18:00 +8°C° 0 mm 2 mps 756 mmHg 78%
    19:00 +7°C° 0 mm 2 mps 756 mmHg 77%
    20:00 +6°C° 0 mm 2 mps 756 mmHg 77%
    21:00 +6°C° 0 mm 2 mps 756 mmHg 76%
    22:00 +5°C° 0 mm 2 mps 756 mmHg 75%
    23:00 +6°C° 0 mm 1 mps 756 mmHg 74%

    26 April, Friday

    Time Temperature Precipitation Wind Pressure Humidity
    00:00 +6°C° 0 mm 1 mps 756 mmHg 72%
    01:00 +6°C° 0 mm 1 mps 756 mmHg 70%
    02:00 +6°C° 0 mm 1 mps 755 mmHg 69%
    03:00 +6°C° 0 mm 1 mps 755 mmHg 67%
    04:00 +6°C° 0 mm 1 mps 755 mmHg 65%
    05:00 +7°C° 0 mm 1 mps 755 mmHg 64%
    06:00 +8°C° 0 mm 1 mps 755 mmHg 63%
    07:00 +9°C° 0 mm 1 mps 755 mmHg 62%
    08:00 +9°C° 0 mm 0 mps 755 mmHg 61%
    09:00 +10°C° 0 mm 0 mps 755 mmHg 59%
    10:00 +10°C° 0 mm 0 mps 754 mmHg 58%
    11:00 +11°C° 0 mm 0 mps 755 mmHg 58%
    12:00 +12°C° 0 mm 1 mps 755 mmHg 58%
    13:00 +13°C° 0 mm 1 mps 755 mmHg 58%
    14:00 +13°C° 0 mm 1 mps 754 mmHg 59%
    15:00 +13°C° 0 mm 1 mps 754 mmHg 59%
    16:00 +13°C° 0 mm 1 mps 754 mmHg 60%
    17:00 +12°C° 0 mm 1 mps 754 mmHg 63%
    18:00 +11°C° 0 mm 1 mps 754 mmHg 65%
    19:00 +10°C° 0 mm 1 mps 754 mmHg 68%
    20:00 +9°C° 0 mm 1 mps 754 mmHg 70%
    21:00 +8°C° 0 mm 1 mps 755 mmHg 71%
    22:00 +7°C° 0 mm 1 mps 755 mmHg 73%
    23:00 +6°C° 0 mm 1 mps 755 mmHg 73%

    27 April, Saturday

    Time Temperature Precipitation Wind Pressure Humidity
    00:00 +6°C° 0 mm 1 mps 755 mmHg 73%
    01:00 +6°C° 0 mm 1 mps 755 mmHg 73%
    02:00 +6°C° 0 mm 1 mps 755 mmHg 71%
    03:00 +5°C° 0 mm 1 mps 755 mmHg 69%
    04:00 +4°C° 0 mm 2 mps 755 mmHg 67%
    05:00 +5°C° 0 mm 2 mps 755 mmHg 64%
    06:00 +6°C° 0 mm 2 mps 755 mmHg 60%
    07:00 +7°C° 0 mm 2 mps 755 mmHg 57%
    08:00 +8°C° 0 mm 2 mps 755 mmHg 54%
    09:00 +9°C° 0 mm 2 mps 755 mmHg 52%
    10:00 +10°C° 0 mm 3 mps 755 mmHg 49%
    11:00 +10°C° 0 mm 3 mps 755 mmHg 50%
    12:00 +11°C° 0 mm 3 mps 755 mmHg 50%
    13:00 +11°C° 0 mm 4 mps 755 mmHg 51%
    14:00 +10°C° 0 mm 4 mps 755 mmHg 54%
    15:00 +10°C° 0 mm 4 mps 755 mmHg 57%
    16:00 +10°C° 0 mm 4 mps 755 mmHg 60%
    17:00 +8°C° 0 mm 4 mps 755 mmHg 62%
    18:00 +9°C° 0 mm 3 mps 755 mmHg 65%
    19:00 +8°C° 0 mm 3 mps 755 mmHg 67%
    20:00 +7°C° 0 mm 3 mps 755 mmHg 69%
    21:00 +5°C° 0 mm 3 mps 756 mmHg 71%
    22:00 +4°C° 0 mm 3 mps 756 mmHg 73%
    23:00 +4°C° 0 mm 3 mps 756 mmHg 72%

    28 April, Sunday

    Time Temperature Precipitation Wind Pressure Humidity
    00:00 +3°C° 0 mm 3 mps 756 mmHg 72%
    01:00 +3°C° 0 mm 3 mps 756 mmHg 71%
    02:00 +3°C° 0 mm 3 mps 756 mmHg 73%
    03:00 +3°C° 0 mm 3 mps 756 mmHg 74%
    04:00 +3°C° 0 mm 3 mps 756 mmHg 76%
    05:00 +4°C° 0 mm 3 mps 756 mmHg 73%
    06:00 +5°C° 0 mm 3 mps 756 mmHg 70%
    07:00 +8°C° 0 mm 3 mps 755 mmHg 67%
    08:00 +9°C° 0 mm 2 mps 755 mmHg 63%
    09:00 +10°C° 0 mm 2 mps 755 mmHg 60%
    10:00 +13°C° 0 mm 2 mps 756 mmHg 57%
    11:00 +14°C° 0 mm 2 mps 756 mmHg 55%
    12:00 +15°C° 0 mm 1 mps 756 mmHg 54%
    13:00 +15°C° 0 mm 1 mps 756 mmHg 52%
    14:00 +15°C° 0 mm 1 mps 755 mmHg 54%
    15:00 +15°C° 0 mm 2 mps 755 mmHg 55%
    16:00 +15°C° 0 mm 2 mps 755 mmHg 56%
    17:00 +14°C° 0 mm 2 mps 755 mmHg 58%
    18:00 +14°C° 0 mm 1 mps 755 mmHg 61%
    19:00 +13°C° 0 mm 1 mps 755 mmHg 64%
    20:00 +12°C° 0 mm 1 mps 755 mmHg 67%
    21:00 +11°C° 0 mm 0 mps 755 mmHg 70%
    22:00 +10°C° 0 mm 0 mps 755 mmHg 73%
    23:00 +11°C° 0 mm 1 mps 755 mmHg 74%
    Show more